TimeCDT,TemperatureF,Dew PointF,Humidity,Sea Level PressureIn,VisibilityMPH,Wind Direction,Wind SpeedMPH,Gust SpeedMPH,PrecipitationIn,Events,Conditions,WindDirDegrees,DateUTC
12:15 AM,73.4,73.4,100,29.77,10.0,South,6.9,-,N/A,,Scattered Clouds,170,2012-10-18 05:15:00
12:35 AM,73.4,73.4,100,29.77,10.0,South,3.5,-,N/A,,Clear,180,2012-10-18 05:35:00
12:55 AM,73.4,73.4,100,29.77,10.0,South,4.6,-,N/A,,Clear,180,2012-10-18 05:55:00
1:15 AM,73.4,73.4,100,29.77,10.0,Calm,Calm,-,N/A,,Clear,0,2012-10-18 06:15:00
1:35 AM,73.4,73.4,100,29.77,7.0,South,3.5,-,N/A,,Scattered Clouds,170,2012-10-18 06:35:00
1:55 AM,73.4,73.4,100,29.76,7.0,SSE,4.6,-,N/A,,Scattered Clouds,160,2012-10-18 06:55:00
2:15 AM,73.4,73.4,100,29.76,7.0,Calm,Calm,-,N/A,,Scattered Clouds,0,2012-10-18 07:15:00
2:35 AM,73.4,73.4,100,29.76,7.0,Calm,Calm,-,N/A,,Mostly Cloudy,0,2012-10-18 07:35:00
2:55 AM,73.4,73.4,100,29.76,7.0,Calm,Calm,-,N/A,,Mostly Cloudy,0,2012-10-18 07:55:00
3:15 AM,73.4,73.4,100,29.74,7.0,Calm,Calm,-,N/A,,Mostly Cloudy,0,2012-10-18 08:15:00
3:35 AM,73.4,73.4,100,29.76,7.0,Calm,Calm,-,N/A,,Mostly Cloudy,0,2012-10-18 08:35:00
3:55 AM,73.4,73.4,100,29.76,10.0,SSW,3.5,-,N/A,,Mostly Cloudy,210,2012-10-18 08:55:00
4:15 AM,73.4,73.4,100,29.76,10.0,Calm,Calm,-,N/A,,Mostly Cloudy,0,2012-10-18 09:15:00
4:55 AM,75.2,75.2,100,29.76,10.0,SSW,3.5,-,N/A,,Overcast,210,2012-10-18 09:55:00
5:15 AM,75.2,73.4,94,29.77,10.0,SW,4.6,-,N/A,,Overcast,220,2012-10-18 10:15:00
5:35 AM,75.2,75.2,100,29.77,10.0,Calm,Calm,-,N/A,,Mostly Cloudy,0,2012-10-18 10:35:00
5:55 AM,75.2,73.4,94,29.77,7.0,WSW,3.5,-,N/A,,Mostly Cloudy,240,2012-10-18 10:55:00
6:15 AM,75.2,73.4,94,29.78,7.0,West,4.6,-,N/A,,Mostly Cloudy,260,2012-10-18 11:15:00
6:35 AM,73.4,73.4,100,29.78,7.0,West,6.9,-,N/A,,Scattered Clouds,270,2012-10-18 11:35:00
6:55 AM,75.2,73.4,94,29.79,7.0,NW,6.9,-,N/A,,Mostly Cloudy,310,2012-10-18 11:55:00
7:15 AM,73.4,73.4,100,29.81,7.0,North,18.4,23.0,N/A,,Overcast,350,2012-10-18 12:15:00
7:35 AM,71.6,66.2,83,29.83,10.0,North,12.7,17.3,N/A,,Light Drizzle,360,2012-10-18 12:35:00
7:55 AM,69.8,64.4,83,29.84,10.0,North,9.2,-,N/A,Rain,Light Rain,360,2012-10-18 12:55:00
8:15 AM,69.8,62.6,78,29.85,10.0,North,10.4,-,N/A,,Overcast,350,2012-10-18 13:15:00
8:35 AM,69.8,60.8,73,29.85,10.0,North,9.2,-,N/A,,Overcast,360,2012-10-18 13:35:00
8:55 AM,71.6,60.8,69,29.85,10.0,NNE,6.9,-,N/A,,Scattered Clouds,30,2012-10-18 13:55:00
9:15 AM,73.4,59.0,61,29.85,10.0,NE,9.2,-,N/A,,Clear,40,2012-10-18 14:15:00
9:35 AM,73.4,59.0,61,29.87,10.0,North,12.7,17.3,N/A,,Clear,10,2012-10-18 14:35:00
9:55 AM,73.4,57.2,57,29.88,10.0,NNE,10.4,18.4,N/A,,Clear,20,2012-10-18 14:55:00
10:15 AM,75.2,55.4,50,29.88,10.0,NE,9.2,-,N/A,,Clear,50,2012-10-18 15:15:00
10:35 AM,77.0,55.4,47,29.89,10.0,NNE,8.1,-,N/A,,Clear,20,2012-10-18 15:35:00
10:55 AM,77.0,55.4,47,29.89,10.0,North,9.2,-,N/A,,Mostly Cloudy,350,2012-10-18 15:55:00
11:15 AM,77.0,53.6,44,29.90,10.0,NNE,9.2,-,N/A,,Overcast,20,2012-10-18 16:15:00
11:35 AM,77.0,53.6,44,29.90,10.0,North,6.9,-,N/A,,Overcast,360,2012-10-18 16:35:00
11:55 AM,78.8,55.4,44,29.90,10.0,North,8.1,-,N/A,,Overcast,350,2012-10-18 16:55:00
12:15 PM,78.8,50.0,36,29.89,10.0,North,12.7,17.3,N/A,,Mostly Cloudy,360,2012-10-18 17:15:00
12:35 PM,80.6,50.0,34,29.88,10.0,North,10.4,-,N/A,,Scattered Clouds,10,2012-10-18 17:35:00
12:55 PM,80.6,48.2,32,29.87,10.0,NNE,5.8,19.6,N/A,,Clear,30,2012-10-18 17:55:00
1:35 PM,80.6,44.6,28,29.86,10.0,NNE,9.2,17.3,N/A,,Scattered Clouds,20,2012-10-18 18:35:00
1:55 PM,80.6,46.4,30,29.85,10.0,NE,9.2,-,N/A,,Clear,40,2012-10-18 18:55:00
2:15 PM,82.4,46.4,28,29.86,10.0,NNE,6.9,-,N/A,,Clear,30,2012-10-18 19:15:00
2:55 PM,82.4,48.2,30,29.86,10.0,NNW,12.7,16.1,N/A,,Clear,340,2012-10-18 19:55:00
3:15 PM,82.4,48.2,30,29.86,10.0,North,5.8,-,N/A,,Clear,10,2012-10-18 20:15:00
3:35 PM,82.4,48.2,30,29.86,10.0,NNE,5.8,-,N/A,,Clear,20,2012-10-18 20:35:00
3:55 PM,82.4,48.2,30,29.87,10.0,NNW,11.5,16.1,N/A,,Clear,340,2012-10-18 20:55:00
4:15 PM,80.6,46.4,30,29.87,10.0,North,5.8,-,N/A,,Clear,10,2012-10-18 21:15:00
4:35 PM,80.6,46.4,30,29.87,10.0,North,6.9,-,N/A,,Scattered Clouds,360,2012-10-18 21:35:00
4:55 PM,78.8,48.2,34,29.87,10.0,North,3.5,-,N/A,,Scattered Clouds,10,2012-10-18 21:55:00
5:15 PM,78.8,48.2,34,29.87,10.0,NNE,4.6,-,N/A,,Clear,20,2012-10-18 22:15:00
5:35 PM,77.0,48.2,36,29.87,10.0,NNE,3.5,-,N/A,,Clear,30,2012-10-18 22:35:00
5:55 PM,75.2,50.0,41,29.87,10.0,NNE,3.5,-,N/A,,Clear,20,2012-10-18 22:55:00
6:15 PM,71.6,53.6,53,29.87,10.0,Calm,Calm,-,N/A,,Clear,0,2012-10-18 23:15:00
6:35 PM,68.0,53.6,60,29.88,10.0,Calm,Calm,-,N/A,,Clear,0,2012-10-18 23:35:00
6:55 PM,66.2,55.4,68,29.89,10.0,Calm,Calm,-,N/A,,Scattered Clouds,0,2012-10-18 23:55:00
7:15 PM,62.6,55.4,77,29.90,10.0,North,3.5,-,N/A,,Clear,360,2012-10-19 00:15:00
7:35 PM,62.6,55.4,77,29.90,10.0,NNW,3.5,-,N/A,,Clear,340,2012-10-19 00:35:00
7:55 PM,60.8,57.2,88,29.91,10.0,North,3.5,-,N/A,,Clear,360,2012-10-19 00:55:00
8:15 PM,60.8,55.4,82,29.91,10.0,Calm,Calm,-,N/A,,Clear,0,2012-10-19 01:15:00
8:35 PM,60.8,55.4,82,29.91,10.0,Calm,Calm,-,N/A,,Clear,0,2012-10-19 01:35:00
8:55 PM,59.0,55.4,88,29.92,10.0,Calm,Calm,-,N/A,,Clear,0,2012-10-19 01:55:00
9:15 PM,59.0,55.4,88,29.92,10.0,Calm,Calm,-,N/A,,Clear,0,2012-10-19 02:15:00
9:35 PM,57.2,53.6,88,29.93,10.0,Calm,Calm,-,N/A,,Clear,0,2012-10-19 02:35:00
9:55 PM,59.0,55.4,88,29.93,10.0,Calm,Calm,-,N/A,,Clear,0,2012-10-19 02:55:00
10:15 PM,57.2,53.6,88,29.94,10.0,Calm,Calm,-,N/A,,Clear,0,2012-10-19 03:15:00
10:35 PM,55.4,53.6,94,29.94,10.0,NNW,3.5,-,N/A,,Clear,340,2012-10-19 03:35:00